Regional Weather Roundup
Issued by NWS

Home | Current Version | Previous Version | Graphics & Text | Print | Product List | Glossary On
Versions: 1 2 3 4 5 6 7 8 9 10 11 12 13 14 15 16 17 18 19 20 21 22 23 24 25 26 27 28
000
ASUS45 KTFX 240310
RWRMT
MONTANA REGIONAL WEATHER ROUNDUP
NATIONAL WEATHER SERVICE GREAT FALLS MT
900 PM MDT TUE AUG 23 2016

NOTE: "FAIR" INDICATES FEW OR NO CLOUDS BELOW 12000 FEET WITH NO
SIGNIFICANT WEATHER AND/OR OBSTRUCTIONS TO VISIBILITY.

MTZ001>007-043-240400-
WEST OF THE DIVIDE

CITY           SKY/WX    TMP DP  RH WIND       PRES   REMARKS
KALISPELL      CLOUDY    62  42  47 N12       30.17R
MISSOULA       CLOUDY    69  35  28 N8        30.15R
BUTTE          CLEAR     59  30  33 N5        30.23R
MULLAN PASS    CLEAR     52  35  52 NW6       30.28R
DEER LODGE       N/A     57  32  38 W8        30.21R
EUREKA           N/A     64  43  45 CALM      30.18R
HAMILTON         N/A     63  39  42 CALM      30.16R
LIBBY            N/A     66  45  45 N5        30.18R
PLAINS           N/A     70  40  33 CALM      30.13R
$$

MTZ008-052>055-240400-
SOUTHWEST MONTANA

CITY           SKY/WX    TMP DP  RH WIND       PRES   REMARKS
BOZEMAN        CLOUDY    57  37  47 NW9       30.16R
DILLON         CLEAR     59  32  36 NE10      30.16R
W YELLOWSTONE  CLEAR     57  14  18 NE6       30.23R
ENNIS          CLEAR     59  25  27 N10       30.22R
THREE FORKS      N/A     65 -24   2 N7        30.14R
TWIN BRIDGES     N/A     65  27  24 N10       30.14R
$$

MTZ009-010-012-014-046-048-049-054-240400-
EAST SLOPES AND CENTRAL MONTANA

CITY           SKY/WX    TMP DP  RH WIND       PRES   REMARKS
CUT BANK       CLOUDY    56  43  61 NW15G23   30.23R
GREAT FALLS    CLOUDY    61  41  47 N13       30.22R
MALMSTROM AFB  CLOUDY    60  43  52 N5        30.21R
HELENA         CLEAR     63  40  42 N7        30.18R
CHOTEAU          N/A     59  43  55 N16       30.24R
CONRAD           N/A     59  48  66 NW13      30.21R
$$

MTZ011-013-016-021-045-047-050-051-240400-
NORTH CENTRAL MONTANA

CITY           SKY/WX    TMP DP  RH WIND       PRES   REMARKS
HAVRE          MOCLDY    58  51  78 NW17G26   30.11R
LEWISTOWN      CLOUDY    58  43  57 NW12      30.21R
N BAR RANCH      N/A     57  41  54 NW17G28   30.18R
CHINOOK          N/A     59  50  72 W16       30.07R
$$

MTZ017>020-022>027-061-062-240400-
NORTHEAST MONTANA

CITY           SKY/WX    TMP DP  RH WIND       PRES   REMARKS
GLASGOW        MOCLDY    62  47  57 W24G37    29.98R
JORDAN           N/A     64  46  52 NW21G26   30.04R
SIDNEY         CLEAR     67  46  47 W14G21    29.93R
WOLF POINT     CLEAR     65  46  50 W17G24    29.95R
POPLAR           N/A     64  48  55 W17G23    29.93R
SCOBEY           N/A     60  43  53 W16       29.92R
$$

MTZ028>42-056>058-240400-
SOUTHCENTRAL AND SOUTHEAST MONTANA

CITY           SKY/WX    TMP DP  RH WIND       PRES   REMARKS
BAKER          CLEAR     64  36  35 W9        30.02R
BILLINGS       PTCLDY    66  38  35 N17       30.12R
LIVINGSTON     CLOUDY    62  31  31 NW7       30.17R
MILES CITY     CLEAR     69  41  36 NW17G26   30.05R
EKALAKA          N/A     60  32  34 NW3       30.03R
FORSYTH          N/A     68  43  40 NW8       30.08R
LAUREL           N/A     66  36  33 N2        30.11R
ROUNDUP          N/A     63  41  44 NW16      30.04R
$$

REGIONAL REPORTS...DAKOTAS

CITY           SKY/WX    TMP DP  RH WIND       PRES   REMARKS
WILLISTON      CLEAR     67  44  43 W12       29.89S
MINOT          CLEAR     69  44  40 W10       29.84R
DICKINSON      CLEAR     56  37  49 W7        29.94R
CROSBY           N/A     59  46  63 W9        29.87R
BISMARCK       CLEAR     67  45  45 NW5       29.90R
GRAND FORKS    PTCLDY    71  67  87 W5        29.73R
FARGO          MOCLDY    77  65  66 SW12      29.76R
BUFFALO SD       N/A     61  36  39 NW8       29.96R
RAPID CITY     CLOUDY    62  34  35 N9        30.01R
$$

REGIONAL REPORTS...WYOMING/IDAHO/WASHINGTON

CITY           SKY/WX    TMP DP  RH WIND       PRES   REMARKS
GILLETTE       CLOUDY    60  29  30 NW9       30.10R
SHERIDAN       PTCLDY    59  43  55 S5        30.11R
BUFFALO WY     CLEAR     65  28  24 NW10      30.16R
CODY           CLEAR     63  28  27 N3        30.16R
YELLOWSTONE LA   N/A     53  16  23 VRB5      30.30R
IDAHO FALLS    CLEAR     68  24  19 S15       30.09R
SALMON         CLEAR     61  34  36 N6        30.12R
BOISE          CLEAR     73  28  18 NW3       30.06R
SPOKANE        PTCLDY    74  37  26 CALM      30.13R
$$

REGIONAL REPORTS...ALBERTA

CITY           SKY/WX    TMP DP  RH WIND       PRES   REMARKS
EDMONTON       PTCLDY    54  48  82 NW6       30.20R
CALGARY        CLOUDY    54  46  76 NW18      30.24S
LETHBRIDGE     CLOUDY    57  46  67 NW20G25   30.21R
MEDICINE HAT   CLOUDY    59  54  82 NW15G22   30.10R
WATERTON GATE    N/A     50  48  93 S3          N/A
MILK RIVER       N/A     54  48  82 NW13        N/A
$$

REGIONAL REPORTS...SASKATCHEWAN

CITY           SKY/WX    TMP DP  RH WIND       PRES   REMARKS
SWIFT CURRENT  LGT RAIN  54  52  94 NW22G33   29.91R
REGINA         MOCLDY    55  54  94 SW13      29.79S
SASKATOON      CLOUDY    54  54 100 N17G25    29.85R
CYPRESS HILLS    N/A     50  46  87 NW14G26     N/A
VAL MARIE        N/A     55  46  71 NW21G26     N/A
ROCKGLEN         N/A     55  48  76 W13         N/A
$$




USA.gov is the U.S. government's official web portal to all federal, state and local government web resources and services.